Location: Wingville
(42.9917°N, 90.4915°W)
Time: 17:40:46
(UTC+00:00)

CUBESAT XI-V - Pass Details

Date: 30 June 2022
Orbit: 668 x 690 km, 98.1° (Epoch: 18 August)

Event Time Altitude Azimuth Distance (km) Brightness Sun altitude
Exits shadow 08:55:00 17° 246° (WSW) 1,699 ? -13.2°
Maximum altitude 08:56:19 19° 268° (W) 1,605 ? -13.1°
Drops below altitude 10° 08:59:33 10° 312° (NW) 2,110 ? -12.7°
Sets 09:02:25 0° 331° (NNW) 3,026 ? -12.4°
